This is the latest recevied weather packets stored in our database for station/object HB9FHL-13. If no packets are shown the sender has not sent any weather packets the latest 10 day(s).
| Time | Temp. | Humidity | Pressure | Rain* | Wind** | Luminosity | Snow |
|---|---|---|---|---|---|---|---|
| 1787936735 | 15.56° C | - | 1008.1 hPa | 0.76 mm | - | - | - |
| 1787936731 | 15.56° C | - | 1008.1 hPa | 0.76 mm | - | - | - |
| 1787936430 | 16.67° C | - | 1017.6 hPa | 0.76 mm | - | - | - |
| 1787936130 | 16.67° C | - | 1016.6 hPa | 0.76 mm | - | - | - |
| 1787935836 | 18.33° C | - | 1023.6 hPa | 0.76 mm | - | - | - |
| 1787935532 | 17.78° C | - | 1020.1 hPa | 0.76 mm | - | - | - |
| 1787935232 | 17.22° C | - | 1014 hPa | 0.76 mm | - | - | - |
| 1787935228 | 17.22° C | - | 1014 hPa | 0.76 mm | - | - | - |
| 1787934931 | 17.78° C | - | 1025.4 hPa | 0.76 mm | - | - | - |
| 1787934631 | 17.22° C | - | 1014.2 hPa | 0.76 mm | - | - | - |
| 1787934627 | 17.22° C | - | 1014.2 hPa | 0.76 mm | - | - | - |
| 1787934331 | 17.78° C | - | 1014.9 hPa | 0.76 mm | - | - | - |
| 1787934327 | 17.78° C | - | 1014.9 hPa | 0.76 mm | - | - | - |
| 1787934026 | 16.67° C | - | 1019.2 hPa | 0.76 mm | - | - | - |
| 1787934022 | 16.67° C | - | 1019.2 hPa | 0.76 mm | - | - | - |
| 1787933722 | 17.78° C | - | 1016.3 hPa | 0.76 mm | - | - | - |
| 1787933427 | 16.67° C | - | 1014.2 hPa | 0.76 mm | - | - | - |
| 1787933427 | 16.67° C | - | 1014.2 hPa | 0.76 mm | - | - | - |
| 1787933127 | 16.67° C | - | 1017.2 hPa | 0.76 mm | - | - | - |
| 1787933121 | 16.67° C | - | 1017.2 hPa | 0.76 mm | - | - | - |
| 1787932820 | 17.22° C | - | 1016.2 hPa | 0.76 mm | - | - | - |
| 1787932524 | 16.67° C | - | 1018.3 hPa | 0.76 mm | - | - | - |
| 1787932519 | 16.67° C | - | 1018.3 hPa | 0.76 mm | - | - | - |
| 1787932219 | 17.22° C | - | 1017.5 hPa | 0.76 mm | - | - | - |
| 1787931918 | 18.33° C | - | 1013.9 hPa | 0.76 mm | - | - | - |
* Rain since midnight (hover to see other rain measurements)
** Current wind speed in m/s (hover to see current wind gust speed)